#timestamp,LO_Frequency,Hit,StdDev 
1501819215.7,286047001.5,N,1.3
1501819235.5,286047001.4,N,1.3
1501819255.4,286047004.3,P,1.6
1501819275.2,286047001.4,N,1.4
1501819295.1,286047002.6,N,1.3
1501819296.0,286047002.6,N,1.1
1501819315.8,286047002.2,N,1.0
1501819335.6,286047002.6,N,1.0
1501819355.5,286046999.7,N,1.3
1501819375.3,286047000.1,N,1.3
1501819395.2,286047002.8,N,1.3
1501819415.9,286046999.7,N,1.4
1501819435.7,286047002.6,N,1.4
1501819455.6,286047002.2,N,1.3
1501819475.4,286047001.8,N,1.3
1501819495.3,286047002.1,N,1.2
1501819515.1,286047002.8,N,1.2
1501819535.8,286047002.6,N,1.2
1501819555.7,286047002.5,N,1.2
1501819575.5,286046999.8,N,1.2
1501819595.4,286047002.1,N,1.2
1501819615.2,286047001.9,N,1.2
1501819635.0,286047002.3,N,1.1
1501819635.9,286047002.3,N,1.1
1501819655.8,286047002.7,N,1.1
1501819675.6,286047002.3,N,1.1
1501819695.5,286047002.6,N,1.1
1501819715.3,286047002.7,N,1.1
1501819735.1,286047002.5,N,1.0
1501819755.9,286047002.5,N,1.0
1501819775.7,286047002.0,N,1.0
1501819795.5,286047001.8,N,1.0
1501819815.4,286047001.6,N,0.9
1501819835.2,286047002.6,N,0.9
1501819855.1,286047000.0,N,1.0
1501819856.0,286047000.0,N,1.0
1501819875.8,286047000.1,N,1.1
1501819895.6,286046999.8,N,1.1
1501819915.5,286047002.3,N,1.1
1501819935.3,286047001.6,N,1.0
1501819955.2,286047001.6,N,1.0
1501819975.9,286047002.0,N,0.9
1501819995.7,286047002.1,N,0.9
1501820015.6,286047001.9,N,0.9
1501820035.4,286047002.3,N,0.9
1501820055.3,286047002.6,N,0.9
1501820075.1,286046999.7,N,1.0
1501820076.0,286046999.7,N,1.0
1501820095.8,286047002.5,N,1.0
1501820115.7,286047002.5,N,1.0
1501820135.5,286047002.0,N,1.0
1501820155.3,286047002.2,N,1.0
1501820175.2,286047001.6,N,1.0
1501820195.0,286047001.9,N,1.0
1501820195.9,286047001.9,N,1.0
1501820215.8,286047002.6,N,1.0
1501820235.6,286047001.9,N,1.0
1501820255.4,286047001.8,N,0.9
1501820275.3,286047001.6,N,0.9
1501820295.1,286047001.5,N,0.9
1501820315.9,286047002.3,N,0.9
1501820335.7,286047001.6,N,0.9
1501820355.5,286047001.5,N,0.9
1501820375.4,286047001.5,N,0.9
1501820395.2,286047001.3,N,0.9
1501820415.1,286047001.5,N,0.8
1501820416.0,286047001.5,N,0.7
1501820435.8,286047004.4,P,1.4
1501820455.6,286046999.7,N,1.9
1501820475.5,286047002.8,N,1.7
1501820495.3,286047002.4,N,1.5
1501820515.2,286047002.7,N,1.4
1501820535.9,286047001.4,N,1.3
1501820555.7,286047002.3,N,1.3
1501820575.6,286047002.5,N,1.2
1501820595.4,286047002.8,N,1.1
1501820615.2,286047002.4,N,1.1
1501820635.1,286047002.6,N,1.0
1501820636.0,286047002.6,N,1.0
1501820655.8,286046999.9,N,1.2
1501820675.7,286046999.8,N,1.3
1501820695.5,286047000.1,N,1.3
1501820715.3,286047002.7,N,1.3
1501820735.2,286047002.8,N,1.3
1501820755.0,286047002.4,N,1.2
1501820755.9,286047002.4,N,1.2
1501820775.8,286046999.9,N,1.3
1501820795.6,286046999.8,N,1.3
1501820815.4,286047000.4,N,1.3
1501820835.3,286047000.6,N,1.3
1501820855.1,286046999.8,N,1.3
1501820875.9,286047000.4,N,1.3
1501820895.7,286046999.9,N,1.3
1501820915.5,286046999.8,N,1.4
1501820935.4,286046999.9,N,1.4
1501820955.2,286047000.5,N,1.3
1501820975.1,286047000.6,N,1.4
1501820976.0,286047000.6,N,1.2
1501820995.8,286047000.6,N,1.2
1501821015.6,286047000.3,N,1.2
1501821035.5,286047000.5,N,1.2
1501821055.3,286047000.5,N,1.1
1501821075.2,286047002.3,N,1.2
1501821095.9,286046999.9,N,1.1
1501821115.7,286047002.4,N,1.1
1501821135.6,286047002.5,N,1.1
1501821155.4,286047000.0,N,1.1
1501821175.2,286047000.0,N,1.1
1501821195.1,286046999.8,N,1.0
1501821196.0,286046999.8,N,1.0
1501821215.8,286047002.6,N,1.1
1501821235.7,286047002.2,N,1.1
1501821255.5,286047002.3,N,1.1
1501821275.3,286047002.3,N,1.0
1501821295.2,286047002.2,N,1.0
1501821315.0,286047002.6,N,1.1
1501821315.9,286047002.6,N,1.1
1501821335.8,286047002.7,N,1.1
1501821355.6,286047002.7,N,1.1
1501821375.4,286047001.9,N,1.1
1501821395.3,286047001.7,N,1.1
1501821415.1,286047002.1,N,1.1
1501821435.9,286047002.2,N,1.1
1501821455.7,286046999.8,N,1.1
1501821475.5,286047002.7,N,1.1
1501821495.4,286046999.9,N,1.1
1501821515.2,286047000.3,N,1.1
1501821535.1,286047000.6,N,1.1
1501821536.0,286047000.6,N,1.1
1501821555.8,286047000.2,N,1.1
1501821575.6,286047000.2,N,1.1
1501821595.5,286046999.7,N,1.2
1501821615.3,286046999.7,N,1.2
1501821635.2,286047002.8,N,1.2
1501821655.9,286047002.2,N,1.2
1501821675.7,286047002.8,N,1.2
1501821695.6,286047000.1,N,1.2
1501821715.4,286047000.5,N,1.2
1501821735.2,286047000.9,N,1.1
1501821755.1,286046998.1,N,1.3
1501821756.0,286046998.1,N,1.4
1501821775.8,286046998.4,N,1.4
1501821795.7,286046998.4,N,1.5
1501821815.5,286047000.8,N,1.5
1501821835.3,286046998.8,N,1.5
1501821855.2,286046999.1,N,1.5
1501821875.0,286046998.9,N,1.5
1501821875.9,286046998.9,N,1.5
1501821895.8,286046999.2,N,1.4
1501821915.6,286046998.9,N,1.4
1501821935.4,286046999.5,N,1.4
1501821955.3,286046999.0,N,1.4
1501821975.1,286046999.6,N,1.3
1501821995.9,286046997.2,N,1.4
1501822015.7,286046995.1,P,2.4
1501822035.5,286046998.0,N,2.0
1501822055.4,286046997.6,N,1.7
1501822075.2,286046997.4,N,1.5
1501822095.1,286046996.7,N,1.4
1501822096.0,286046996.7,N,1.3
1501822115.8,286046996.8,N,1.3
1501822135.6,286046999.2,N,1.3
1501822155.5,286046997.2,N,1.3
1501822175.3,286046997.7,N,1.2
1501822195.2,286046995.3,P,1.1
1501822215.9,286046997.0,N,0.9
1501822235.7,286046999.1,N,1.4
1501822255.6,286046999.5,N,1.5
1501822275.4,286046997.3,N,1.4
1501822295.2,286046997.1,N,1.3
1501822315.1,286046997.9,N,1.2
1501822316.0,286046997.9,N,1.2
1501822335.8,286046997.6,N,1.1
1501822355.7,286046994.9,P,1.4
1501822375.5,286046998.7,N,1.6
1501822395.3,286046999.2,N,1.7
1501822415.2,286046998.9,N,1.6
1501822435.0,286046999.1,N,1.5
1501822435.9,286046999.1,N,1.4
1501822455.8,286046999.5,P,0.6
1501822475.6,286047001.2,N,1.2
1501822495.4,286047000.3,N,1.1
1501822515.3,286046999.7,N,1.0
1501822535.1,286047000.3,N,0.9
1501822555.9,286047000.5,N,0.9
1501822575.7,286047000.9,N,0.9
1501822595.5,286046999.9,N,0.8
1501822615.4,286047000.2,N,0.8
1501822635.2,286047000.1,N,0.8
1501822655.1,286047000.4,N,0.7
1501822656.0,286047000.4,N,0.7
1501822675.8,286046998.6,N,0.8
1501822695.6,286046998.6,N,0.8
1501822715.5,286047001.2,N,0.9
1501822735.3,286046999.4,N,0.8
1501822755.2,286046996.9,P,1.5
1501822775.0,286046999.2,N,1.3
1501822775.9,286046999.2,N,1.1
1501822795.7,286046999.6,N,1.1
